Weather History for Carmi, IL

Change the Weather History Date:

Monday, June 17, 2013

  Actual Average (KEVV) Record (KEVV)
Temperature  
Mean Temperature 80 °F 75 °F  
Max Temperature 91 °F 86 °F 100 °F (1918)
Min Temperature 68 °F 65 °F 50 °F (1961)
Degree Days  
Heating Degree Days 0 0  
Month to date heating degree days 4  
Since 1 June heating degree days 4  
Since 1 July heating degree days 4545  
Cooling Degree Days 14 11  
Month to date cooling degree days 144  
Year to date cooling degree days 279  
Since 1 June cooling degree days 144  
Growing Degree Days 30 (Base 50)    
Moisture  
Dew Point 68 °F    
Average Humidity 81    
Maximum Humidity 96    
Minimum Humidity 38    
Precipitation  
Precipitation 0.18 in 0.11 in 1.96 in (1945)
Month to date precipitation 2.30  
Year to date precipitation 22.54  
Snow  
Snow 0.00 in 0.00 in - ()
Month to date snowfall 0.0  
Since 1 June snowfall 0.0  
Since 1 July snowfall 11.8  
Snow Depth -    
Sea Level Pressure  
Sea Level Pressure 29.93 in    
Wind  
Wind Speed 3 mph (ESE)    
Max Wind Speed 17 mph    
Max Gust Speed 25 mph    
Visibility 7 miles    
Events Fog , Rain , Thunderstorm    
T = Trace of Precipitation, MM = Missing Value Source: NWS Daily Summary

Daily Weather History Graph

Daily Weather History Graph

Search for Another Location

Airport:

Trip Planner

Search our weather history database for the weather conditions in past years. The results will help you decide how hot, cold, wet, or windy it might be!

Date:

Astronomy

Jun. 17, 2013 Rise Set
Actual Time 5:29 AM CDT 8:17 PM CDT
Civil Twilight 4:57 AM CDT 8:49 PM CDT
Nautical Twilight 4:18 AM CDT 9:28 PM CDT
Astronomical Twilight 3:33 AM CDT 10:13 PM CDT
Moon 2:00 PM CDT 12:59 AM CDT
Length of Visible Light 15h 51m
Length of Day
14h 48m
First Quarter, 60% of the Moon is Illuminated
Jun 17
First Quarter
Jun 23
Full
Jun 29
Last Quarter
Jul 8
New
Jul 15
First Quarter

Hourly Weather History & Observations

Time (CDT) Temp. Heat Index Dew Point Humidity Pressure Visibility Wind Dir Wind Speed Gust Speed Precip Events Conditions
12:15 AM 71.2 °F - 68.9 °F 92% 29.96 in 7.0 mi SSE 3.5 mph - N/A   Clear
12:35 AM 71.8 °F - 69.1 °F 91% 29.96 in 7.0 mi South 3.5 mph - N/A   Clear
12:55 AM 71.6 °F - 68.9 °F 91% 29.95 in 7.0 mi SE 3.5 mph - N/A   Clear
1:15 AM 71.6 °F - 68.7 °F 91% 29.94 in 5.0 mi East 3.5 mph - N/A   Clear
1:35 AM 70.9 °F - 68.5 °F 92% 29.94 in 5.0 mi Calm Calm - N/A   Clear
1:55 AM 70.7 °F - 68.4 °F 92% 29.95 in 5.0 mi Calm Calm - N/A   Clear
2:15 AM 70.7 °F - 68.4 °F 92% 29.95 in 4.0 mi Calm Calm - N/A   Clear
2:35 AM 71.1 °F - 69.1 °F 93% 29.95 in 4.0 mi Calm Calm - N/A   Clear
2:55 AM 70.9 °F - 68.9 °F 93% 29.94 in 4.0 mi Calm Calm - N/A   Clear
3:15 AM 70.3 °F - 68.2 °F 93% 29.94 in 3.0 mi Calm Calm - N/A   Clear
3:35 AM 68.7 °F - 66.9 °F 94% 29.94 in 2.0 mi Calm Calm - N/A   Clear
3:55 AM 69.4 °F - 67.8 °F 95% 29.94 in 0.2 mi Calm Calm - N/A Fog Fog
4:15 AM 69.4 °F - 67.8 °F 95% 29.95 in 2.0 mi Calm Calm - N/A   Clear
4:35 AM 69.8 °F - 68.2 °F 95% 29.94 in 0.2 mi Calm Calm - N/A Fog Fog
4:55 AM 69.3 °F - 68.0 °F 96% 29.94 in 0.5 mi Calm Calm - N/A Fog Fog
5:15 AM 68.7 °F - 67.3 °F 95% 29.94 in 0.2 mi Calm Calm - N/A Fog Fog
5:35 AM 68.9 °F - 67.5 °F 95% 29.95 in 1.0 mi Calm Calm - N/A   Overcast
5:55 AM 69.8 °F - 68.2 °F 95% 29.94 in 0.8 mi Calm Calm - N/A   Overcast
6:15 AM 69.8 °F - 68.2 °F 95% 29.95 in 0.5 mi Calm Calm - N/A Fog Fog
6:35 AM 70.3 °F - 68.9 °F 95% 29.96 in 0.8 mi Calm Calm - N/A   Overcast
6:55 AM 70.7 °F - 69.3 °F 95% 29.96 in 1.0 mi Calm Calm - N/A   Mostly Cloudy
7:15 AM 72.7 °F - 71.1 °F 95% 29.96 in 1.5 mi Calm Calm - N/A   Mist
7:35 AM 74.3 °F - 71.4 °F 91% 29.96 in 2.5 mi Calm Calm - N/A   Clear
7:55 AM 76.1 °F - 72.0 °F 87% 29.96 in 3.0 mi Calm Calm - N/A   Scattered Clouds
8:15 AM 76.8 °F - 72.0 °F 85% 29.95 in 4.0 mi Calm Calm - N/A   Haze
8:35 AM 79.0 °F - 72.3 °F 80% 29.95 in 5.0 mi Calm Calm - N/A   Haze
8:55 AM 80.4 °F 84.8 °F 73.0 °F 78% 29.94 in 5.0 mi Calm Calm - N/A   Haze
9:15 AM 82.0 °F 87.7 °F 73.2 °F 75% 29.94 in 7.0 mi Calm Calm - N/A   Clear
9:35 AM 82.9 °F 88.8 °F 73.2 °F 72% 29.94 in 7.0 mi Calm Calm - N/A   Clear
9:55 AM 82.9 °F 88.5 °F 72.7 °F 71% 29.94 in 7.0 mi NE 3.5 mph - N/A   Clear
10:15 AM 84.6 °F 90.7 °F 72.3 °F 67% 29.94 in 10.0 mi NE 3.5 mph - N/A   Clear
10:35 AM 86.9 °F 91.7 °F 70.2 °F 57% 29.94 in 10.0 mi NE 4.6 mph - N/A   Clear
10:55 AM 87.3 °F 92.0 °F 69.6 °F 56% 29.93 in 10.0 mi ENE 3.5 mph - N/A   Clear
11:15 AM 88.7 °F 91.9 °F 67.5 °F 49% 29.93 in 10.0 mi NNE 4.6 mph - N/A   Clear
11:35 AM 88.3 °F 91.6 °F 67.3 °F 50% 29.94 in 10.0 mi Calm Calm - N/A   Scattered Clouds
11:55 AM 89.6 °F 92.6 °F 67.1 °F 47% 29.94 in 10.0 mi Calm Calm - N/A   Scattered Clouds
12:15 PM 88.9 °F 92.6 °F 67.8 °F 50% 29.93 in 10.0 mi SE 4.6 mph - N/A   Scattered Clouds
12:35 PM 89.8 °F 93.8 °F 68.4 °F 49% 29.93 in 10.0 mi Calm Calm - N/A   Clear
12:55 PM 90.3 °F 93.4 °F 66.9 °F 46% 29.92 in 10.0 mi Calm Calm - N/A   Scattered Clouds
1:15 PM 91.6 °F 93.1 °F 64.0 °F 40% 29.91 in 10.0 mi South 4.6 mph - N/A   Clear
1:35 PM 91.4 °F 92.1 °F 62.6 °F 38% 29.91 in 10.0 mi Calm Calm - N/A   Scattered Clouds
1:55 PM 89.1 °F 90.6 °F 64.2 °F 44% 29.89 in 10.0 mi Calm Calm - N/A   Clear
2:15 PM 88.3 °F 90.2 °F 65.3 °F 46% 29.88 in 10.0 mi SE 4.6 mph - N/A   Clear
2:35 PM 86.4 °F 89.4 °F 67.6 °F 53% 29.88 in 10.0 mi SSE 4.6 mph - N/A   Clear
2:55 PM 84.9 °F 88.8 °F 68.9 °F 59% 29.87 in 10.0 mi South 3.5 mph - N/A   Clear
3:15 PM 84.6 °F 88.8 °F 69.8 °F 61% 29.89 in 10.0 mi South 4.6 mph - N/A   Clear
3:35 PM 82.4 °F 86.5 °F 70.5 °F 67% 29.89 in 10.0 mi SW 11.5 mph - N/A Rain , Thunderstorm Light Thunderstorms and Rain
3:55 PM 72.7 °F - 66.4 °F 81% 29.89 in 7.0 mi SSW 17.3 mph 25.3 mph 0.01 in Rain Light Rain
4:15 PM 71.4 °F - 67.5 °F 87% 29.89 in 10.0 mi South 10.4 mph - N/A Rain Light Rain
4:35 PM 71.8 °F - 67.3 °F 86% 29.89 in 10.0 mi South 8.1 mph - N/A Rain Light Rain
4:55 PM 72.1 °F - 68.0 °F 87% 29.92 in 10.0 mi SSE 12.7 mph 17.3 mph 0.01 in Rain Light Rain
5:15 PM 70.9 °F - 67.5 °F 89% 29.91 in 10.0 mi South 12.7 mph - 0.01 in Rain Light Rain
5:35 PM 69.8 °F - 66.4 °F 89% 29.90 in 10.0 mi South 12.7 mph - 0.02 in Rain Rain
5:55 PM 69.8 °F - 66.6 °F 89% 29.93 in 7.0 mi Calm Calm - 0.03 in Rain Light Rain
6:15 PM 70.2 °F - 67.3 °F 91% 29.98 in 5.0 mi North 16.1 mph 20.7 mph 0.02 in Rain Rain
6:35 PM 70.2 °F - 67.3 °F 91% 29.98 in 5.0 mi North 11.5 mph 20.7 mph 0.07 in Rain Rain
6:55 PM 69.8 °F - 67.1 °F 91% 29.98 in 10.0 mi NNW 6.9 mph - 0.07 in Rain Light Rain
7:15 PM 69.8 °F - 67.3 °F 92% 29.97 in 7.0 mi NNW 9.2 mph - 0.01 in   Light Drizzle
7:35 PM 69.1 °F - 66.4 °F 91% 29.97 in 10.0 mi NNW 10.4 mph - 0.01 in Rain Light Rain
7:55 PM 68.0 °F - 64.8 °F 89% 29.97 in 10.0 mi North 10.4 mph - 0.02 in Rain Rain
8:15 PM 68.0 °F - 64.9 °F 90% 29.96 in 10.0 mi North 6.9 mph - 0.01 in Rain Light Rain
8:35 PM 68.5 °F - 65.8 °F 91% 29.94 in 10.0 mi NE 3.5 mph - 0.02 in   Light Drizzle
8:55 PM 68.9 °F - 66.2 °F 91% 29.92 in 10.0 mi NNE 3.5 mph - 0.02 in   Light Drizzle
9:15 PM 68.9 °F - 66.4 °F 92% 29.92 in 10.0 mi NNE 3.5 mph - N/A   Light Drizzle
9:35 PM 68.9 °F - 65.3 °F 88% 29.91 in 10.0 mi Calm Calm - N/A Rain Light Rain
9:55 PM 68.9 °F - 66.2 °F 91% 29.91 in 10.0 mi Calm Calm - N/A Rain Light Rain
10:15 PM 68.7 °F - 65.8 °F 90% 29.92 in 10.0 mi ESE 6.9 mph - 0.01 in Rain Light Rain
10:35 PM 68.9 °F - 64.9 °F 87% 29.94 in 10.0 mi ESE 11.5 mph 18.4 mph 0.01 in Rain Light Rain
10:55 PM 68.4 °F - 65.3 °F 90% 29.94 in 10.0 mi ESE 10.4 mph - 0.01 in Rain Light Rain
11:15 PM 68.2 °F - 65.5 °F 91% 29.92 in 10.0 mi SE 12.7 mph - 0.01 in Rain Light Rain
11:35 PM 68.4 °F - 65.5 °F 90% 29.90 in 10.0 mi SE 12.7 mph - 0.01 in   Light Drizzle
11:55 PM 68.5 °F - 65.7 °F 90% 29.89 in 10.0 mi SE 11.5 mph 19.6 mph 0.01 in Rain Light Rain